Terminal Aerodrome Forecast
Issued by NWS Anchorage, AK

Home | Current Version | Previous Version | Text Only | Print | Product List | Glossary On
Versions: 1 2 3 4 5 6 7 8 9 10 11 12 13 14 15 16 17 18 19 20 21 22 23 24 25 26 27 28 29 30 31 32 33 34
000
FTAK31 PANC 182330
TAFANC
TAF
PANC 182330Z 1900/2006 15008G18KT P6SM -RA BKN050
     FM190600 16011KT 5SM -RA BKN030 OVC045
     FM191400 VRB03KT P6SM VCSH BKN025
     FM192000 VRB03KT P6SM VCSH BKN050=

USA.gov is the U.S. government's official web portal to all federal, state and local government web resources and services.